Location: Unspecified
(0.0000°N, 0.0000°E)
Time: 21:49:05
(UTC+00:00)

STARLINK-1587 - Visible Passes

Search period start: 12 January 2025 00:00
Search period end: 22 January 2025 00:00
Orbit: 546 x 548 km, 53.1° (Epoch: 12 January)

Date Brightness Start Highest point End Pass type
(mag) Time Alt. Az. Time Alt. Az. Time Alt. Az.
12 Jan 5.1 04:32:20 24° NNE 04:33:50 32° NE 04:37:32 10° ESE visible
13 Jan 4.1 04:27:03 48° NNE 04:27:31 51° ENE 04:31:31 10° SE visible
14 Jan 3.9 04:21:41 66° SE 04:21:41 66° SE 04:25:17 10° SE visible
15 Jan 4.8 04:16:14 35° S 04:16:14 35° S 04:18:50 10° SSE visible
16 Jan 5.7 04:10:42 20° S 04:10:42 20° S 04:12:10 10° SSE visible
17 Jan 6.4 04:05:03 11° S 04:05:03 11° S 04:05:15 10° S visible
